Dewpoint
5 5 5 4 4 5 4 3 5 6 8 5 6 5 -0 -4 -5 -1 -1 1 0 -3 -8 -9 -6 -0 0 0 -1 -4 -4 -4 -1 -2 -3 -4 -4 -4 -5 -5 -5 -5 -2 -1 -1
3 4 4 4 3 3 5 6 5 7 7 7 6 4 -3 -2 -0 -2 1 -1 -3 -4 -6 -5 -0 0 -1 -1 -3 -7 -4 -1 -0 -2 -2 -3 -4 -4 -5 -5 -7 -4 -3 -3 -4
1 3 3 4 3 2 2 2 3 6 6 7 6 -0 -0 -2 -4 3 5 -4 -3 -3 -3 -2 -1 -2 -2 -3 -5 -4 -2 -1 -0 -3 -3 -4 -4 -5 -5 -7 -5 -5 -5 -5 -4
1 0 2 3 3 1 0 2 3 4 6 7 6 -2 1 1 3 2 3 -3 -1 -3 -4 -2 -3 -4 -3 -3 -5 -4 -5 -2 -2 -5 -7 -4 -5 -7 -5 -8 -6 -5 -5 -6 -6
1 1 0 2 3 3 1 1 -0 1 4 6 4 2 3 3 5 4 -2 -2 -2 -3 -4 -4 -5 -5 -3 -5 -6 -4 -4 -5 -4 -5 -4 -4 -4 -4 -6 -10 -10 -9 -7 -7 -6
-2 -2 -2 -1 1 2 2 -0 1 4 6 6 2 3 2 4 4 1 -1 -1 -2 -4 -5 -5 -5 -5 -4 -2 -4 -3 -4 -4 -4 -5 -5 -5 -5 -5 -8 -8 -8 -8 -8 -8 -7
-0 -1 -3 -3 2 2 2 2 3 4 5 4 3 2 1 1 1 0 0 -0 -2 -2 -4 -4 -4 -4 -4 -3 -4 -5 -4 -5 -5 -5 -6 -8 -8 -6 -8 -7 -7 -7 -7 -7 -7
2 1 -0 -2 1 3 4 4 5 1 4 4 3 2 1 0 -0 -0 0 -0 -1 -2 -3 -3 -4 -5 -4 -4 -4 -4 -4 -3 -5 -7 -7 -10 -6 -6 -7 -8 -9 -10 -10 -10 -10
2 2 3 1 3 4 4 5 2 1 4 3 1 0 0 -0 0 -1 -1 -2 -3 -2 -3 -3 -5 -2 -1 -1 -1 -1 0 -4 -5 -9 -9 -9 -9 -10 -8 -9 -9 -8 -8 -8 -8
2 2 3 3 4 4 4 4 3 2 2 3 2 0 -1 -2 -2 -2 -3 -3 -4 -5 -5 -4 -3 -2 -2 1 -1 1 -3 -7 -8 -6 -7 -7 -7 -8 -8 -7 -6 -6 -6 -6 -6
3 2 3 4 3 4 3 2 2 1 2 2 0 -1 -1 -2 -2 -2 -2 -2 -3 -3 -1 -3 -1 -2 -5 -6 -6 -6 -7 -6 -6 -2 -3 -3 -3 -3 -4 -4 -4 -4 -4 -3 -1
3 2 3 3 2 3 0 1 2 2 2 2 -1 -1 -2 -2 -2 -2 -2 -3 -3 -0 -2 -1 -1 -4 -4 -3 -3 -3 -2 -2 -3 -2 -2 -1 -2 -4 -4 -3 -3 -2 -0 0 -0
2 2 2 2 2 1 0 1 2 2 2 -0 -1 -1 -1 -3 -1 -3 -3 -3 -3 -2 -1 -1 -2 -5 -3 -2 -1 -1 -1 -0 -0 -1 -2 -2 -7 -4 -5 -3 -0 1 0 -0 -0
2 2 0 0 -1 -1 -0 0 -0 -1 1 -0 -0 -2 -1 -1 -3 -3 -3 -3 -3 -1 -2 -2 -4 -3 -2 -2 -3 0 -1 -1 1 -1 -2 -2 -3 -2 -3 -1 1 1 1 1 0
1 1 1 1 -1 -2 -1 1 0 1 1 -3 -0 -1 -1 -3 -2 -4 -3 -4 -3 -2 -3 -1 -2 -2 -0 -1 -4 -0 -1 -0 -0 -3 -3 -1 -0 -1 -2 -0 1 1 1 1 1
1 0 1 -1 -1 -2 0 2 0 -2 1 -1 -1 -1 -1 -2 -2 -3 -2 -3 -2 -1 -2 -2 -3 -3 -2 -1 -1 -1 0 -0 -0 -4 -2 -2 -0 -1 -0 2 2 2 2 2 1
-1 -1 -1 -1 -3 -3 -0 1 -2 0 -2 0 0 -1 -1 -1 -1 -2 -1 -1 -0 -4 -2 -2 -0 -2 -3 -0 -1 -1 -3 -3 -2 -2 -0 -4 -2 0 1 2 2 2 2 2 2
-3 -3 -4 -4 -4 -2 0 -3 -1 -0 0 -2 -2 -2 -0 -1 -2 -1 -1 -1 -1 -2 -5 -2 -0 -1 -2 -1 -0 1 -0 -3 -3 -0 0 -1 1 -1 2 2 2 2 2 2 2
-5 -5 -3 -2 -1 -1 -3 -1 -0 -1 -2 -1 -2 -2 -1 -2 -2 -1 -1 -1 -1 -2 -2 1 1 -1 1 1 -0 1 0 2 2 -0 3 -1 -1 -2 2 2 2 2 2 2 3
-4 -4 -3 -2 -2 -2 -2 -0 -1 -2 -2 -2 -3 -1 0 -1 -1 -1 -1 -2 0 -1 -2 -0 0 1 2 1 2 1 2 3 2 -0 1 -0 -1 1 2 2 3 3 3 2 2
-4 -4 -4 -2 -2 -4 -2 -1 -2 -2 -3 -2 -3 -3 -1 -1 -1 -0 -1 -1 -1 -1 -1 0 -1 2 3 3 1 3 3 2 1 2 2 3 1 -2 3 3 3 3 3 2 -1
-4 -6 -3 -3 -3 -2 -2 -2 -2 -2 -2 -3 -4 -4 -2 -3 -1 -0 -0 -0 -2 -1 1 0 -0 -0 2 1 -0 0 1 1 3 2 3 1 1 2 2 2 2 1 0 -0 -1
-3 -3 -4 -5 -3 -2 -2 -2 -2 -2 -2 -3 -3 -4 -4 -3 -0 -0 -0 -2 -1 -1 2 1 2 0 3 3 2 3 2 2 2 2 3 1 1 2 2 2 1 1 0 0 -2
-2 -3 -4 -4 -3 -3 -2 -2 -2 -3 -2 -3 -3 -3 -3 -2 -3 -0 -0 -1 -1 -1 1 1 3 2 1 1 2 4 3 2 2 4 2 2 1 -1 1 2 0 -1 -0 0 -2
-5 -4 -3 -3 -3 -4 -3 -3 -1 -1 -3 -2 -2 -2 -2 -1 -1 -1 -1 -1 -1 -1 0 0 3 2 2 2 2 2 2 2 3 3 3 1 2 -1 -1 -0 -1 -1 -0 -0 -2
-2 -4 -4 -4 -5 -5 -4 -4 -3 -3 -3 -2 -2 -2 -2 -1 -2 -0 -0 -0 0 0 0 1 3 2 2 1 1 2 2 2 2 2 2 2 2 -1 -1 -1 -1 -1 -0 -0 -3
-5 -4 -3 -4 -6 -5 -5 -4 -4 -3 -3 -2 -2 -2 -2 -2 -2 -2 -2 -1 -1 0 1 1 2 1 2 0 0 1 -0 0 1 1 2 3 1 -2 -1 -2 -2 -2 -2 -1 -4
Wind_Speed
14 11 13 10 9 8 9 11 9 12 22 17 15 11 12 16 19 17 12 8 7 9 11 13 15 16 11 7 6 3 4 2 2 2 2 8 3 6 4 7 11 6 6 6 7
14 11 7 5 8 7 8 10 12 14 17 18 15 13 19 19 17 17 9 8 12 11 14 16 17 13 7 5 3 5 4 2 2 0 3 5 5 4 2 4 5 10 10 8 7
16 12 9 9 5 9 5 6 5 8 13 17 17 18 24 20 17 7 5 9 14 15 15 19 14 12 6 5 3 3 4 5 1 4 3 2 3 4 2 1 3 6 1 4 6
16 15 9 8 9 6 9 8 12 9 15 15 20 23 20 10 5 5 6 14 13 14 13 16 10 5 5 4 4 6 4 6 4 4 3 2 3 4 3 4 5 6 6 8 11
15 12 10 7 7 8 8 8 10 11 13 17 27 22 15 15 9 7 9 13 14 14 15 15 11 8 6 7 6 4 2 6 7 3 2 0 2 4 13 10 11 13 14 16 17
12 7 6 6 5 7 5 7 9 18 16 30 29 17 17 14 11 10 11 13 14 15 16 15 7 10 9 5 5 4 5 6 3 3 1 1 1 3 3 4 8 10 11 13 16
15 9 4 4 7 7 6 6 11 23 21 27 18 22 26 13 12 11 11 11 12 11 15 13 13 4 9 6 7 6 3 3 1 1 0 4 1 6 6 5 9 14 16 16 17
17 16 8 6 7 8 14 17 19 23 27 27 20 20 16 17 15 12 10 10 10 12 14 13 10 13 5 12 4 4 4 2 1 3 1 3 7 7 6 7 10 13 19 22 24
21 21 11 9 11 17 28 29 28 23 31 25 19 24 7 16 16 13 8 12 11 11 12 11 9 7 5 4 4 6 3 2 2 1 0 3 7 6 9 10 23 32 29 24 24
22 23 16 16 28 30 26 34 33 32 21 13 16 16 9 14 13 12 13 12 11 15 12 7 6 4 4 5 4 4 3 1 2 4 3 5 11 12 25 22 30 33 31 26 24
16 16 25 25 31 31 26 24 21 17 28 16 15 28 19 15 12 10 11 11 8 8 4 7 8 4 3 3 3 5 3 0 1 3 4 5 7 17 27 18 23 27 21 11 8
16 18 12 16 13 12 15 20 17 19 20 24 24 23 16 9 12 14 10 6 7 4 3 6 4 1 5 5 6 5 3 3 5 4 3 6 16 13 14 7 9 11 13 13 15
22 14 19 28 35 37 36 28 22 16 9 13 15 21 11 13 9 15 12 7 8 8 7 6 2 1 4 5 5 4 4 2 2 7 2 9 7 6 4 13 14 13 13 18 23
16 16 27 22 19 18 16 9 5 3 5 10 10 9 10 3 8 15 11 5 6 4 5 6 3 3 4 4 4 2 1 2 4 6 2 5 5 7 4 3 7 14 21 25 28
12 14 15 3 8 10 8 5 1 1 6 9 7 6 9 8 3 10 11 17 5 3 5 3 2 4 5 1 3 2 2 2 2 2 4 1 2 8 4 3 5 13 22 26 31
15 13 15 9 6 11 9 6 2 6 3 4 4 4 4 11 4 5 7 10 5 6 7 3 2 3 2 3 3 1 3 6 3 4 2 4 4 5 3 2 5 10 18 25 28
11 9 6 5 10 13 11 4 5 6 3 1 2 3 4 5 5 4 5 5 3 4 5 6 4 4 1 2 5 6 5 3 5 4 5 1 2 8 5 3 6 9 17 25 25
4 3 5 10 12 12 8 6 10 1 3 2 2 4 4 4 5 5 3 3 3 5 4 3 5 2 3 4 2 1 3 4 5 2 5 1 5 5 4 6 8 9 15 21 22
4 7 10 13 14 10 4 6 5 5 3 5 3 5 3 3 4 4 2 3 2 2 5 4 2 2 1 2 3 1 1 1 1 0 3 3 7 6 5 6 12 14 16 17 20
6 7 11 15 12 7 6 5 3 5 4 3 4 3 2 2 2 2 3 1 4 1 2 4 2 3 3 4 1 2 1 2 1 1 4 5 5 5 4 8 10 11 15 17 19
5 4 11 12 8 10 4 3 4 5 3 2 2 3 4 5 5 2 4 2 4 3 1 3 4 1 3 7 8 3 2 5 3 3 4 3 6 6 7 8 10 11 13 16 24
4 3 10 9 6 4 2 2 3 2 1 1 1 2 4 5 2 1 3 3 9 10 3 4 4 4 9 5 9 5 6 5 3 3 3 3 6 7 8 10 14 11 13 17 19
3 3 10 6 4 2 3 3 2 1 1 1 1 0 1 3 2 3 4 2 10 8 6 5 3 1 2 1 2 5 5 4 2 3 6 3 5 4 8 11 19 17 16 15 17
1 2 5 8 9 8 5 1 1 1 1 1 1 1 1 2 2 5 4 4 10 6 5 7 3 5 5 4 3 4 4 7 7 3 3 8 10 14 8 10 17 20 15 13 14
3 1 2 1 3 5 4 7 3 2 2 1 2 4 4 3 2 3 3 2 4 6 5 3 4 3 9 13 10 13 13 10 12 13 7 3 8 16 14 8 16 16 10 13 13
3 2 1 2 2 2 2 5 7 4 4 3 3 2 4 3 5 2 5 4 5 3 5 3 4 3 6 10 10 13 15 15 17 17 19 19 24 22 29 22 13 13 12 14 14
6 4 1 1 1 3 3 3 6 8 6 6 3 2 4 5 6 6 5 4 2 6 6 3 2 5 5 6 8 7 9 15 8 6 17 14 18 9 8 9 14 16 15 16 13
Wind_Direction
86 103 119 102 112 117 158 220 219 217 183 174 173 159 140 130 133 139 113 103 121 132 134 146 148 140 128 98 100 84 63 72 7 73 133 18 79 45 51 94 70 80 91 130 151
67 77 95 110 92 167 129 160 181 179 176 171 172 149 135 133 134 122 94 107 127 128 135 144 136 131 94 88 58 73 83 122 259 93 70 45 71 11 51 36 71 89 112 132 158
59 73 102 87 124 148 198 181 214 168 183 185 160 150 139 131 123 66 88 135 139 139 133 137 124 110 80 104 43 74 133 147 53 100 80 42 29 31 41 307 152 114 46 167 194
55 57 68 107 119 152 135 173 208 209 184 184 154 148 140 135 99 99 118 136 142 139 132 139 135 93 94 97 61 94 63 131 148 59 62 60 332 335 241 220 201 276 280 267 259
30 40 65 87 129 119 138 136 132 180 196 179 148 143 133 88 83 101 125 140 147 146 142 142 126 105 123 117 81 79 141 99 124 98 82 135 305 277 263 265 265 261 261 263 266
17 29 36 80 102 160 128 125 116 146 142 159 138 131 125 79 92 97 119 133 140 148 144 148 125 125 96 81 83 114 111 114 129 117 30 300 339 345 289 305 274 268 270 280 282
26 34 46 108 108 110 130 136 126 152 130 136 126 130 105 92 107 99 105 108 130 133 130 127 134 146 119 100 113 108 78 40 79 228 64 346 227 236 283 286 269 267 279 282 279
47 49 61 123 132 109 119 111 126 152 141 135 123 126 77 95 111 107 105 108 126 124 127 115 123 107 74 116 64 73 54 96 289 154 279 68 268 262 248 282 280 285 287 285 284
48 44 60 88 159 110 111 114 113 124 140 123 108 98 74 95 90 88 108 103 116 133 132 128 116 79 80 81 42 20 155 168 285 246 145 194 269 269 213 282 287 290 293 293 292
53 43 88 109 100 105 115 112 109 113 142 100 70 83 82 76 94 88 98 99 97 113 103 75 62 70 37 53 191 181 129 46 207 347 315 276 270 276 279 286 280 289 291 290 291
56 49 93 102 115 115 112 108 91 60 71 75 74 97 93 92 95 74 92 93 79 74 81 36 65 82 98 68 107 104 90 321 276 22 334 272 285 287 289 280 277 284 296 342 28
51 78 90 67 103 102 119 93 97 117 84 62 70 71 69 86 71 64 75 74 62 83 72 40 79 132 98 64 82 65 82 333 296 359 359 320 293 281 294 285 302 14 70 20 354
58 78 111 99 94 95 92 94 100 101 87 43 36 48 43 68 52 25 49 64 66 59 53 99 140 61 75 54 76 38 101 30 288 327 45 331 318 337 334 7 73 48 15 355 347
41 62 124 116 90 78 68 64 72 106 79 360 359 22 13 26 50 42 44 54 46 107 82 77 6 67 74 73 96 110 50 57 12 37 296 45 277 306 347 335 44 10 357 346 337
68 71 145 89 105 36 17 15 43 159 71 307 346 17 22 77 116 25 47 69 80 57 91 250 65 47 63 61 103 162 9 340 82 88 47 336 75 270 304 271 340 342 343 341 335
95 94 129 123 4 354 354 348 25 44 62 342 339 16 37 53 47 48 53 69 71 59 48 74 55 63 76 49 83 319 51 35 53 79 353 237 138 275 233 251 308 311 334 336 338
89 108 134 341 337 340 339 353 45 62 339 350 62 36 54 37 34 37 45 37 86 75 7 354 341 335 56 52 4 56 46 358 355 8 224 188 73 249 213 201 240 289 323 336 345
64 48 356 345 343 342 345 53 65 57 206 252 87 46 76 25 16 20 92 40 56 77 91 114 334 204 181 169 157 78 134 151 219 228 268 340 235 254 178 225 288 302 320 342 345
29 29 29 4 346 349 39 54 151 188 179 128 52 60 27 38 112 47 34 125 72 85 128 147 257 111 40 55 119 212 260 254 266 263 276 258 285 293 265 277 327 324 318 338 352
24 55 26 4 4 9 71 94 91 172 135 101 129 172 152 201 116 152 201 240 124 94 103 187 67 195 133 85 32 147 143 155 85 45 291 284 272 238 294 297 292 308 307 341 352
54 56 7 354 15 39 80 91 89 72 93 131 163 134 178 185 176 173 210 326 126 161 247 132 95 193 141 207 181 168 226 205 204 222 195 294 265 209 215 245 268 285 330 355 347
23 59 12 11 43 33 60 74 71 38 26 301 101 108 160 171 125 235 210 222 171 168 192 191 158 215 215 250 178 187 192 177 153 232 234 173 272 194 211 241 256 317 331 338 335
65 10 22 61 99 31 13 59 67 144 274 280 231 149 127 163 157 192 205 233 174 182 178 186 221 345 330 27 135 225 198 191 165 149 219 160 261 213 236 264 281 288 306 316 321
21 37 35 51 105 129 129 72 23 27 286 282 209 38 56 198 176 198 213 214 205 204 188 174 245 207 203 216 146 212 210 202 187 199 223 233 282 277 262 255 282 305 293 298 315
36 57 87 124 338 125 135 147 142 293 247 234 293 224 186 202 212 233 181 241 210 201 182 177 259 239 259 261 254 255 244 218 207 221 216 274 232 271 280 265 280 301 282 291 307
70 36 68 97 127 5 342 183 158 172 165 261 193 276 192 220 193 244 169 210 208 162 174 203 272 323 278 266 252 257 251 236 229 228 238 253 273 276 277 285 264 259 270 282 295
99 100 6 326 65 100 230 227 199 160 179 182 207 146 233 242 275 264 238 250 218 172 195 212 225 315 272 316 321 287 241 212 203 209 219 234 242 268 279 263 260 268 267 277 289
Height
1454 1454 1456 1459 1460 1460 1461 1462 1466 1471 1474 1479 1482 1485 1487 1489 1492 1494 1496 1500 1502 1504 1505 1508 1511 1513 1516 1519 1521 1523 1535 1542 1542 1537 1538 1535 1535 1536 1537 1537 1538 1539 1541 1542 1544
1459 1459 1459 1461 1462 1462 1463 1467 1468 1470 1472 1478 1482 1485 1488 1490 1492 1494 1500 1501 1502 1504 1507 1510 1513 1514 1517 1521 1523 1525 1541 1538 1539 1539 1539 1537 1537 1538 1539 1538 1540 1541 1543 1544 1545
1462 1463 1462 1462 1462 1464 1465 1465 1469 1471 1474 1477 1482 1485 1488 1491 1493 1498 1499 1500 1503 1506 1508 1510 1513 1516 1519 1523 1526 1529 1538 1538 1539 1539 1539 1539 1538 1539 1539 1540 1540 1542 1543 1544 1545
1466 1465 1464 1464 1464 1465 1466 1468 1473 1474 1476 1477 1481 1487 1489 1492 1502 1500 1500 1503 1505 1507 1509 1511 1514 1517 1522 1526 1528 1535 1536 1536 1539 1539 1539 1540 1541 1540 1540 1539 1539 1540 1542 1543 1544
1471 1468 1467 1466 1466 1467 1469 1470 1471 1473 1477 1480 1481 1489 1491 1495 1502 1503 1503 1504 1506 1508 1510 1512 1515 1517 1523 1526 1529 1534 1536 1537 1538 1539 1540 1541 1542 1541 1537 1537 1538 1538 1539 1540 1541
1472 1470 1469 1467 1467 1467 1468 1469 1471 1473 1477 1479 1486 1489 1493 1498 1505 1505 1505 1507 1507 1510 1512 1514 1516 1518 1524 1529 1532 1535 1535 1537 1539 1540 1540 1541 1542 1541 1535 1536 1536 1535 1535 1537 1538
1473 1470 1469 1469 1469 1469 1469 1471 1472 1472 1478 1485 1489 1493 1494 1505 1507 1508 1509 1509 1510 1512 1513 1516 1518 1519 1525 1530 1534 1535 1538 1538 1539 1540 1541 1541 1541 1540 1534 1533 1533 1534 1534 1534 1534
1476 1473 1471 1470 1471 1471 1471 1471 1473 1476 1482 1489 1491 1493 1501 1508 1509 1510 1513 1514 1514 1515 1517 1519 1520 1522 1526 1531 1535 1538 1542 1547 1541 1542 1542 1543 1546 1533 1533 1533 1532 1532 1532 1531 1531
1480 1477 1474 1473 1469 1475 1472 1474 1477 1482 1490 1492 1495 1496 1510 1513 1512 1513 1515 1516 1517 1518 1520 1521 1523 1527 1530 1536 1547 1546 1554 1544 1543 1542 1543 1544 1541 1534 1532 1532 1529 1527 1527 1527 1526
1486 1483 1480 1479 1478 1478 1480 1480 1485 1486 1498 1497 1499 1503 1514 1515 1515 1517 1517 1519 1519 1520 1523 1524 1527 1532 1537 1543 1555 1550 1546 1546 1545 1547 1544 1545 1541 1533 1532 1531 1526 1523 1521 1522 1523
1492 1491 1488 1486 1483 1483 1484 1487 1493 1500 1506 1511 1513 1510 1515 1518 1519 1519 1518 1520 1521 1522 1528 1529 1538 1549 1543 1542 1542 1543 1546 1548 1546 1548 1546 1544 1544 1531 1523 1525 1521 1518 1518 1521 1521
1496 1496 1494 1492 1490 1489 1491 1490 1497 1505 1513 1516 1517 1516 1519 1520 1521 1521 1521 1522 1524 1529 1530 1537 1549 1545 1543 1543 1544 1546 1549 1553 1549 1546 1548 1547 1538 1525 1519 1519 1518 1520 1520 1520 1518
1501 1500 1500 1500 1499 1497 1496 1499 1502 1505 1512 1523 1522 1521 1523 1525 1525 1525 1525 1526 1529 1533 1536 1542 1547 1545 1544 1547 1549 1555 1554 1556 1557 1553 1549 1546 1536 1530 1520 1520 1519 1520 1520 1519 1516
1508 1507 1506 1505 1508 1506 1505 1504 1505 1506 1518 1532 1528 1527 1528 1526 1528 1528 1528 1530 1532 1539 1540 1546 1547 1546 1547 1549 1554 1559 1554 1555 1556 1565 1574 1555 1567 1537 1525 1522 1520 1519 1517 1515 1511
1510 1510 1510 1509 1509 1508 1510 1508 1507 1507 1537 1537 1532 1532 1530 1528 1533 1533 1532 1532 1537 1539 1541 1554 1549 1549 1551 1552 1553 1556 1554 1555 1557 1574 1577 1562 1574 1541 1527 1520 1521 1518 1515 1512 1508
1512 1512 1513 1513 1511 1510 1508 1506 1506 1521 1547 1542 1536 1534 1532 1532 1534 1536 1534 1534 1538 1542 1544 1550 1549 1550 1552 1553 1553 1553 1554 1560 1563 1580 1589 1560 1565 1546 1530 1524 1522 1517 1514 1509 1504
1515 1515 1514 1514 1512 1510 1507 1506 1522 1538 1545 1541 1539 1536 1536 1538 1537 1537 1539 1541 1549 1560 1567 1555 1553 1551 1552 1557 1555 1555 1568 1596 1588 1595 1574 1571 1572 1533 1523 1521 1520 1515 1510 1505 1499
1519 1517 1516 1514 1512 1510 1508 1510 1537 1539 1544 1538 1538 1539 1544 1541 1541 1541 1541 1551 1544 1549 1575 1575 1573 1554 1553 1555 1558 1559 1562 1586 1587 1591 1573 1559 1555 1529 1517 1516 1515 1512 1507 1502 1498
1521 1519 1517 1515 1512 1510 1510 1531 1540 1539 1536 1538 1541 1550 1543 1541 1543 1543 1544 1545 1545 1546 1562 1562 1561 1551 1552 1552 1555 1558 1566 1557 1559 1572 1558 1561 1535 1519 1515 1512 1508 1508 1505 1499 1494
1522 1521 1519 1517 1515 1513 1514 1531 1535 1534 1534 1537 1546 1542 1547 1544 1544 1546 1542 1541 1544 1545 1546 1552 1563 1548 1552 1554 1555 1556 1557 1560 1566 1581 1577 1554 1549 1526 1518 1511 1506 1504 1499 1493 1489
1522 1523 1523 1519 1518 1518 1535 1536 1534 1534 1534 1536 1537 1540 1542 1543 1544 1545 1544 1542 1542 1545 1546 1549 1560 1553 1555 1551 1554 1556 1558 1555 1559 1551 1565 1553 1535 1512 1511 1507 1502 1496 1492 1489 1485
1524 1523 1523 1522 1524 1531 1539 1535 1535 1536 1537 1537 1537 1537 1541 1544 1545 1551 1547 1542 1542 1544 1546 1549 1557 1567 1550 1539 1541 1544 1545 1545 1553 1555 1549 1557 1532 1499 1501 1500 1497 1491 1489 1488 1486
1524 1525 1524 1520 1536 1542 1539 1537 1539 1539 1539 1538 1538 1537 1538 1540 1544 1544 1546 1541 1542 1543 1547 1548 1552 1566 1545 1542 1543 1541 1538 1538 1539 1543 1543 1556 1526 1498 1498 1496 1492 1490 1489 1488 1484
1526 1529 1527 1525 1527 1531 1537 1541 1540 1539 1539 1539 1539 1539 1540 1540 1540 1543 1546 1541 1541 1542 1543 1544 1544 1545 1548 1536 1533 1537 1533 1534 1538 1538 1536 1529 1514 1493 1496 1494 1489 1488 1487 1485 1482
1528 1530 1530 1535 1533 1529 1531 1534 1539 1541 1539 1540 1539 1538 1540 1542 1541 1540 1542 1541 1541 1541 1542 1543 1544 1540 1533 1529 1530 1527 1526 1527 1529 1525 1527 1508 1510 1491 1488 1489 1486 1485 1484 1482 1480
1530 1532 1532 1531 1531 1534 1531 1532 1532 1535 1538 1539 1539 1537 1539 1540 1539 1538 1539 1540 1538 1540 1541 1540 1537 1538 1533 1521 1520 1521 1514 1513 1513 1512 1512 1504 1498 1485 1482 1483 1482 1482 1481 1479 1477
1527 1531 1533 1533 1532 1533 1535 1533 1531 1529 1532 1533 1535 1536 1536 1536 1535 1534 1535 1535 1535 1537 1540 1539 1537 1533 1532 1523 1521 1517 1499 1497 1499 1498 1497 1505 1483 1481 1481 1480 1479 1478 1477 1476 1475